TimeAST,TemperatureF,Dew PointF,Humidity,Sea Level PressureIn,VisibilityMPH,Wind Direction,Wind SpeedMPH,Gust SpeedMPH,PrecipitationIn,Events,Conditions,WindDirDegrees,DateUTC
12:53 AM,81.0,73.9,79,29.97,10.0,East,6.9,-,N/A,,Clear,100,2012-10-10 04:53:00
1:53 AM,80.1,72.0,76,29.95,10.0,East,10.4,-,N/A,,Clear,100,2012-10-10 05:53:00
2:53 AM,79.0,75.0,88,29.92,10.0,East,8.1,-,N/A,,Clear,100,2012-10-10 06:53:00
3:53 AM,80.1,75.9,87,29.92,10.0,East,4.6,-,N/A,,Clear,100,2012-10-10 07:53:00
4:53 AM,80.1,75.9,87,29.92,10.0,ESE,6.9,-,N/A,,Clear,110,2012-10-10 08:53:00
5:53 AM,80.1,75.9,87,29.93,10.0,East,6.9,-,N/A,,Clear,100,2012-10-10 09:53:00
6:53 AM,80.1,75.9,87,29.94,10.0,ESE,8.1,-,N/A,,Clear,110,2012-10-10 10:53:00
8:53 AM,86.0,75.0,70,29.96,10.0,East,8.1,-,N/A,,Clear,100,2012-10-10 12:53:00
9:53 AM,89.1,75.9,65,29.98,10.0,ENE,11.5,-,N/A,,Partly Cloudy,70,2012-10-10 13:53:00
10:53 AM,88.0,73.9,63,29.98,10.0,ESE,11.5,19.6,N/A,,Scattered Clouds,120,2012-10-10 14:53:00
11:53 AM,87.1,73.9,65,29.95,10.0,SSE,13.8,-,N/A,,Mostly Cloudy,150,2012-10-10 15:53:00
12:53 PM,87.1,75.0,67,29.92,10.0,SE,12.7,-,N/A,,Clear,140,2012-10-10 16:53:00
1:53 PM,87.1,75.9,69,29.90,10.0,SSE,13.8,-,N/A,,Clear,150,2012-10-10 17:53:00
2:53 PM,88.0,75.9,67,29.88,10.0,SSE,10.4,-,N/A,,Scattered Clouds,150,2012-10-10 18:53:00
3:53 PM,89.1,75.0,63,29.88,10.0,ENE,8.1,-,N/A,,Scattered Clouds,60,2012-10-10 19:53:00
4:53 PM,86.0,75.9,72,29.90,10.0,ENE,10.4,-,N/A,,Scattered Clouds,70,2012-10-10 20:53:00
5:53 PM,84.0,75.0,74,29.90,10.0,ENE,9.2,-,N/A,,Clear,70,2012-10-10 21:53:00
6:53 PM,82.9,75.9,79,29.91,10.0,East,8.1,-,N/A,,Partly Cloudy,80,2012-10-10 22:53:00
7:53 PM,82.9,75.9,79,29.94,10.0,East,10.4,-,N/A,,Partly Cloudy,90,2012-10-10 23:53:00
8:53 PM,80.1,75.9,87,29.95,10.0,ESE,6.9,-,0.01,,Clear,120,2012-10-11 00:53:00
9:53 PM,82.0,75.9,82,29.95,10.0,ESE,8.1,-,N/A,,Clear,110,2012-10-11 01:53:00
11:53 PM,81.0,75.9,85,29.93,10.0,ESE,8.1,-,N/A,,Clear,110,2012-10-11 03:53:00